Hourly Data Report for January 15, 2020

TORONTO CITY
ONTARIO
Current Station Operator: ECCC - MSC

43°40'00.000" N
79°24'00.000" W
112.50 m
6158355
71508
XTO

Download Data

Hourly Data (January 2020)
Hourly Data Report for January 15, 2020
TIME
LST
Temp Definition
°C
Dew Point Definition
°C
Rel Hum Definition
%
Precip. Amount Definition
mm

Wind Dir Definition
10's deg

Wind Spd Definition
km/h
Visibility Definition
km
Stn Press Definition
kPa
Hmdx Definition


Wind Chill Definition


Weather Definition


00:00 4.0 0.0 75 0.0       100.52     LegendNANA
01:00 3.8 -0.6 73 0.0       100.55     LegendNANA
02:00 3.8 -1.2 70 0.0       100.58     LegendNANA
03:00 3.7 -2.2 65 0.0       100.63     LegendNANA
04:00 3.6 -2.7 63 0.0       100.72     LegendNANA
05:00 3.5 -2.6 64 0.0       100.77     LegendNANA
06:00 3.5 -2.9 63 0.0       100.75     LegendNANA
07:00 3.3 -2.8 64 0.0       100.73     LegendNANA
08:00 2.9 -2.6 67 0.0       100.75     LegendNANA
09:00 3.4 -2.2 67 0.0       100.78     LegendNANA
10:00 3.7 -1.8 67 0.0       100.86     LegendNANA
11:00 3.9 -3.0 61 0.0       100.83     LegendNANA
12:00 4.2 -2.9 60 0.0       100.78     LegendNANA
13:00 4.6 -3.3 57 0.0       100.70     LegendNANA
14:00 4.2 -3.0 59 0.0       100.68     LegendNANA
15:00 4.1 -3.0 60 0.0       100.59     LegendNANA
16:00 4.2 -2.7 61 0.0       100.54     LegendNANA
17:00 4.0 -2.8 61 0.0       100.44     LegendNANA
18:00 3.8 -2.9 62 0.0       100.37     LegendNANA
19:00 3.6 -3.5 60 0.0       100.26     LegendNANA
20:00 3.3 -1.3 72 0.0       100.29     LegendNANA
21:00 3.3 -1.2 72 0.0       100.07     LegendNANA
22:00 3.4 -0.6 75 0.0       100.06     LegendNANA
23:00 3.4 -0.3 77 0.0       99.92     LegendNANA

Notes on Data Quality.

Legend

  • E = Estimated
  • M = Missing
  • NA = Not Available*
  • [empty] = Indicates an unobserved value
Date modified: